Location: Newark
(16.3678°N, 77.8722°E)
Time: 00:16:40
(UTC+00:00)

Tiros 1 - Pass Details

Date: 17 December 2019
Orbit: 630 x 664 km, 48.4° (Epoch: 27 January)

Event Time Altitude Azimuth Distance (km) Brightness Sun altitude
Rises 07:20:31 0° 294° (WNW) 2,908 10.4 49.3°
Reaches altitude 10° 07:23:29 10° 274° (W) 1,998 9.9 49.2°
Maximum altitude 07:26:31 17° 233° (SW) 1,567 9.9 49.0°
Drops below altitude 10° 07:29:32 10° 191° (SSW) 1,995 10.6 48.8°
Sets 07:32:31 0° 172° (S) 2,903 11.1 48.6°
